FW4505 Nea Kallikrateia GR current weather conditions

sailwx.info

Wind from 068

Air temperature 9.4° C
Dewpoint 6.7° C

Last reported at 2019-Dec-08 20:00 UTC.
Time now 2019-Dec-08 20:36 UTC

Location: N 40°19' E 023°05'.
View on Google Maps.

See reports from other nearby stations

  
Tides and Currents Weather Stations Pressure Air Temp Water Temp Dewpoint Dewpoint Depression Visibility Wind Speed Wind Dir Waves Ship Positions
date/time (UTC)wind fromknots sea level pressurealtimeterstation pressurevisibilityair tempwater tempwave heightnotes
2019-Dec-08 20:00 068 9.4
2019-Dec-08 19:50 068 9.4
2019-Dec-08 19:40 9.4
2019-Dec-08 19:30 111 9.4
2019-Dec-08 19:20 111 9.4
2019-Dec-08 19:10 112 9.4
2019-Dec-08 19:00 112 8.9
2019-Dec-08 18:50 112 9.4
2019-Dec-08 18:40 9.4
2019-Dec-08 18:30 112 8.9
2019-Dec-08 18:20 068 9.4
2019-Dec-08 18:10 10.0
2019-Dec-08 18:00 10.0
2019-Dec-08 17:50 023 0 gusting 0 10.6
2019-Dec-08 17:40 023 11.7
2019-Dec-08 17:30 022 11.7
2019-Dec-08 17:20 022 0 10.6
2019-Dec-08 17:10 023 0 gusting 0 10.6
2019-Dec-08 17:00 023 0 12.2
2019-Dec-08 16:50 023 11.7
2019-Dec-08 16:40 022 1 gusting 1 11.7
2019-Dec-08 16:30 009 6 gusting 9 11.7
2019-Dec-08 16:20 003 5 gusting 8 11.7
2019-Dec-08 16:10 001 1 gusting 3 11.7
2019-Dec-08 16:00 008 11.1
2019-Dec-08 15:50 001 11.7
2019-Dec-08 15:40 350 12.2
2019-Dec-08 15:30 337 12.8
2019-Dec-08 15:20 337 0 gusting 0 13.3
2019-Dec-08 15:10 337 13.3
2019-Dec-08 15:00 13.9
2019-Dec-08 14:50 337 15.0
2019-Dec-08 14:40 337 15.0
2019-Dec-08 14:30 15.0
2019-Dec-08 14:20 337 15.6
2019-Dec-08 14:10 337 15.6
2019-Dec-08 14:00 337 0 gusting 4 15.6
2019-Dec-08 13:50 337 1 gusting 4 15.6
2019-Dec-08 13:40 001 2 gusting 3 15.6
2019-Dec-08 13:30 001 16.1
2019-Dec-08 13:20 001 1 gusting 1 16.1
2019-Dec-08 13:10 001 16.1
2019-Dec-08 13:00 001 1 gusting 3 16.1
2019-Dec-08 12:50 014 3 gusting 4 15.6
2019-Dec-08 12:40 346 5 gusting 5 15.6
2019-Dec-08 12:30 327 6 gusting 8 16.1
2019-Dec-08 12:20 337 6 gusting 8 16.1
2019-Dec-08 12:10 337 5 gusting 5 16.1
2019-Dec-08 12:00 013 1 gusting 1 16.1
2019-Dec-08 11:50 337 7 gusting 8 16.1
2019-Dec-08 11:40 337 6 gusting 8 16.1
2019-Dec-08 11:30 337 6 gusting 8 16.1
2019-Dec-08 11:10 304 9 gusting 11 15.6
2019-Dec-08 11:00 001 15.6
2019-Dec-08 10:50 001 15.6
2019-Dec-08 10:40 001 15.6
2019-Dec-08 10:30 001 15.6
2019-Dec-08 10:20 001 0 gusting 0 16.1
2019-Dec-08 10:10 001 16.1
2019-Dec-08 10:00 001 16.1
2019-Dec-08 09:50 001 15.0
2019-Dec-08 09:40 001 14.4
2019-Dec-08 09:30 001 13.9
2019-Dec-08 09:20 001 0 13.9
2019-Dec-08 09:10 001 13.9
2019-Dec-08 09:00 001 13.9
2019-Dec-08 08:50 001 14.4
2019-Dec-08 08:40 001 13.9
2019-Dec-08 08:30 001 0 gusting 0 13.3
2019-Dec-08 08:20 001 0 gusting 0 12.8
2019-Dec-08 08:10 13.3
2019-Dec-08 08:00 001 12.2
2019-Dec-08 07:50 001 12.2
2019-Dec-08 07:40 11.1
2019-Dec-08 07:30 001 10.0
2019-Dec-08 07:20 001 9.4
2019-Dec-08 07:10 001 8.9
2019-Dec-08 07:00 001 8.3
2019-Dec-08 06:50 001 7.8
2019-Dec-08 06:40 001 0 7.8
2019-Dec-08 06:30 7.2
2019-Dec-08 06:20 001 7.2
2019-Dec-08 06:10 001 7.2
2019-Dec-08 06:00 001 0 6.7
2019-Dec-08 05:50 001 7.2
2019-Dec-08 05:40 001 7.8
2019-Dec-08 05:30 001 7.2
2019-Dec-08 05:20 001 0 6.7
2019-Dec-08 05:10 001 6.7
2019-Dec-08 05:00 001 6.7
2019-Dec-08 04:50 001 0 gusting 0 6.7
2019-Dec-08 04:40 001 7.8
2019-Dec-08 04:30 001 7.2
2019-Dec-08 04:20 001 0 gusting 0 6.7
2019-Dec-08 04:10 001 6.1
2019-Dec-08 04:00 001 6.1
2019-Dec-08 03:50 001 6.1
2019-Dec-08 03:40 001 6.1
2019-Dec-08 03:30 6.7
2019-Dec-08 03:20 001 6.7
2019-Dec-08 03:10 001 6.7
2019-Dec-08 03:00 001 6.7
2019-Dec-08 02:50 001 6.7
2019-Dec-08 02:40 001 7.2
2019-Dec-08 02:30 001 0 gusting 0 6.7
2019-Dec-08 02:20 6.7
2019-Dec-08 02:10 001 6.7
2019-Dec-08 02:00 001 6.7
2019-Dec-08 01:50 001 0 gusting 0 6.7
2019-Dec-08 01:40 001 6.7
2019-Dec-08 01:30 001 6.7
2019-Dec-08 01:20 6.7
2019-Dec-08 01:10 001 6.7
2019-Dec-08 01:00 001 6.7
2019-Dec-08 00:50 001 6.7
2019-Dec-08 00:40 001 6.7
2019-Dec-08 00:30 001 6.7
2019-Dec-08 00:20 6.7
2019-Dec-08 00:10 001 6.7
2019-Dec-08 00:00 001 6.7
2019-Dec-07 23:50 6.7
2019-Dec-07 23:40 001 6.7
2019-Dec-07 23:30 001 6.7
2019-Dec-07 23:20 001 6.7
2019-Dec-07 23:10 001 6.7
2019-Dec-07 23:00 001 6.7
2019-Dec-07 22:50 6.7
2019-Dec-07 22:40 001 7 gusting 6 6.7
2019-Dec-07 22:30 001 7 gusting 11 6.7
2019-Dec-07 22:20 001 7 gusting 11 6.7
2019-Dec-07 22:10 001 6 gusting 5 6.7
2019-Dec-07 22:00 001 4 gusting 6 6.7
2019-Dec-07 21:50 001 6 gusting 6 6.7
2019-Dec-07 21:40 337 1 gusting 3 6.7
2019-Dec-07 21:30 342 1 gusting 3 6.7
2019-Dec-07 21:20 337 5 gusting 5 6.7
2019-Dec-07 21:10 325 4 gusting 2 6.7
2019-Dec-07 21:00 337 5 gusting 6 6.7
2019-Dec-07 20:50 350 1 gusting 1 6.7
2019-Dec-07 20:40 001 7.2
2019-Dec-07 20:30 001 1 gusting 7 7.2
2019-Dec-07 20:20 001 5 gusting 7 7.2
2019-Dec-07 20:10 001 4 gusting 6 7.2
2019-Dec-07 20:00 001 0 gusting 1 7.8
2019-Dec-07 19:50 001 4 gusting 5 7.8
2019-Dec-07 19:40 001 5 gusting 6 7.8
2019-Dec-07 19:30 001 6 gusting 9 7.8
2019-Dec-07 19:20 001 5 gusting 5 7.8
2019-Dec-07 19:10 001 5 gusting 6 7.8
2019-Dec-07 19:00 001 5 gusting 6 7.8
2019-Dec-07 18:50 001 3 gusting 6 7.8
2019-Dec-07 18:40 001 6 gusting 9 8.3
2019-Dec-07 18:30 359 1 gusting 2 8.3
2019-Dec-07 18:20 337 8.3
2019-Dec-07 18:10 348 0 8.3
2019-Dec-07 18:00 001 8.3
2019-Dec-07 17:50 001 1 gusting 2 8.9
2019-Dec-07 17:40 8.9
2019-Dec-07 17:30 001 1 gusting 0 8.9
2019-Dec-07 17:20 001 1 gusting 1 9.4
2019-Dec-07 17:10 001 9.4
2019-Dec-07 17:00 001 0 gusting 0 9.4
2019-Dec-07 16:50 9.4
2019-Dec-07 16:40 337 9.4
2019-Dec-07 16:30 337 9.4
2019-Dec-07 16:20 337 0 gusting 0 9.4
2019-Dec-07 16:10 337 9.4
2019-Dec-07 16:00 337 1 gusting 2 9.4
2019-Dec-07 15:50 337 2 gusting 4 9.4
2019-Dec-07 15:40 011 4 gusting 5 9.4
2019-Dec-07 15:30 350 3 gusting 6 9.4
2019-Dec-07 15:20 001 2 gusting 2 9.4
2019-Dec-07 15:10 001 1 gusting 3 9.4
2019-Dec-07 15:00 339 0 gusting 1 10.0
2019-Dec-07 14:50 10.0
2019-Dec-07 14:40 001 10.0
2019-Dec-07 14:30 337 10.6
2019-Dec-07 14:20 10.6
2019-Dec-07 14:10 337 10.6
2019-Dec-07 14:00 337 11.1
2019-Dec-07 13:50 11.1
2019-Dec-07 13:40 337 11.7
2019-Dec-07 13:30 11.7
2019-Dec-07 13:20 337 11.7
2019-Dec-07 13:10 337 11.7
2019-Dec-07 13:00 337 12.2
2019-Dec-07 12:50 337 12.2
2019-Dec-07 12:40 001 11.7
2019-Dec-07 12:30 001 1 gusting 2 11.7
2019-Dec-07 12:20 001 11.7
2019-Dec-07 12:10 001 1 gusting 1 11.1
2019-Dec-07 12:00 001 1 gusting 1 11.1
2019-Dec-07 11:50 015 2 gusting 3 11.1
2019-Dec-07 11:40 356 1 gusting 2 11.1
2019-Dec-07 11:30 001 1 gusting 2 10.6
2019-Dec-07 11:20 337 10.6
2019-Dec-07 11:10 337 1 gusting 2 10.6
2019-Dec-07 11:00 337 10.6
2019-Dec-07 10:50 337 10.6
2019-Dec-07 10:40 10.6
2019-Dec-07 10:30 337 10.6
2019-Dec-07 10:20 337 11.1
2019-Dec-07 10:10 11.1
2019-Dec-07 10:00 001 0 gusting 1 10.6
2019-Dec-07 09:50 346 10.6
2019-Dec-07 09:40 337 10.6
2019-Dec-07 09:30 10.6
2019-Dec-07 09:20 337 11.1
2019-Dec-07 09:10 337 0 11.1
2019-Dec-07 09:00 337 11.7
2019-Dec-07 08:50 337 11.1
2019-Dec-07 08:40 10.6
2019-Dec-07 08:30 10.6
2019-Dec-07 08:20 337 10.6
2019-Dec-07 08:10 337 10.6
2019-Dec-07 08:00 10.0
2019-Dec-07 07:50 337 10.0
2019-Dec-07 07:40 9.4
2019-Dec-07 07:30 337 0 gusting 0 9.4
2019-Dec-07 07:20 337 8.9
2019-Dec-07 07:10 001 0 gusting 0 9.4
2019-Dec-07 07:00 001 9.4
2019-Dec-07 06:50 001 8.9
2019-Dec-07 06:40 001 8.3
2019-Dec-07 06:30 005 7.8
2019-Dec-07 06:20 023 8.9
2019-Dec-07 06:10 023 8.9
2019-Dec-07 06:00 023 0 8.3
2019-Dec-07 05:50 023 8.3
2019-Dec-07 05:40 022 0 gusting 0 7.8
2019-Dec-07 05:30 023 7.8
2019-Dec-07 05:20 023 7.8
2019-Dec-07 05:10 014 0 gusting 0 7.8
2019-Dec-07 05:00 352 7.8
2019-Dec-07 04:50 001 7.8
2019-Dec-07 04:40 001 7.8
2019-Dec-07 04:30 001 8.3
2019-Dec-07 04:20 001 0 gusting 0 8.3
2019-Dec-07 04:10 7.8
2019-Dec-07 04:00 001 0 gusting 0 7.8
2019-Dec-07 03:50 001 7.8
2019-Dec-07 03:40 001 7.2
2019-Dec-07 03:30 001 0 gusting 0 7.8
2019-Dec-07 03:20 001 8.3
2019-Dec-07 03:10 001 8.3
2019-Dec-07 03:00 001 7.8
2019-Dec-07 02:50 001 8.3
2019-Dec-07 02:40 001 7.8
2019-Dec-07 02:30 001 1 gusting 0 7.8
2019-Dec-07 02:20 337 1 gusting 2 7.8
2019-Dec-07 02:10 349 7.8
2019-Dec-07 02:00 001 7.2
2019-Dec-07 01:50 001 0 gusting 0 7.8
2019-Dec-07 01:40 001 1 gusting 1 7.8
2019-Dec-07 01:30 001 3 gusting 2 7.2
2019-Dec-07 01:20 001 1 gusting 4 7.8
2019-Dec-07 01:00 001 0 gusting 0 8.3
2019-Dec-07 00:50 023 0 gusting 0 8.3
2019-Dec-07 00:40 017 1 gusting 1 7.8
2019-Dec-07 00:30 001 8.3
2019-Dec-07 00:20 001 4 gusting 6 7.8
2019-Dec-07 00:10 003 1 gusting 3 7.8
2019-Dec-07 00:00 023 1 gusting 3 7.8
2019-Dec-06 23:40 001 3 gusting 3 7.8
2019-Dec-06 23:30 005 1 gusting 3 7.8
2019-Dec-06 23:20 001 3 gusting 3 7.8
2019-Dec-06 23:10 022 7.8
2019-Dec-06 23:00 023 7.8
2019-Dec-06 22:50 022 1 gusting 1 7.8
2019-Dec-06 22:40 011 4 gusting 6 7.8
2019-Dec-06 22:30 019 1 gusting 3 7.8
2019-Dec-06 22:20 337 7.8
2019-Dec-06 22:10 337 7.8
2019-Dec-06 22:00 337 7.8
2019-Dec-06 21:50 337 7.8
2019-Dec-06 21:40 7.2
2019-Dec-06 21:30 337 7.8
2019-Dec-06 21:20 7.8
2019-Dec-06 21:10 337 7.8
2019-Dec-06 21:00 337 7.8
2019-Dec-06 20:50 337 7.8
2019-Dec-06 20:40 7.8
2019-Dec-06 20:30 7.2
2019-Dec-06 20:20 337 6.7
2019-Dec-06 20:10 337 6.7
2019-Dec-06 20:00 348 6.7